This is the latest recevied weather packets stored in our database for station/object IW3HBX-3. If no packets are shown the sender has not sent any weather packets the latest 10 day(s).
| Time | Temp. | Humidity | Pressure | Rain* | Wind** | Luminosity | Snow |
|---|---|---|---|---|---|---|---|
| 1777744777 | 22.22° C | 40% | 1020.5 hPa | 0 mm | - | 15 W/m² | - |
| 1777744477 | 22.22° C | 40% | 1020.6 hPa | 0 mm | - | 18 W/m² | - |
| 1777744177 | 22.22° C | 40% | 1020.5 hPa | 0 mm | - | 21 W/m² | - |
| 1777743877 | 22.78° C | 39% | 1020.5 hPa | 0 mm | - | 24 W/m² | - |
| 1777743578 | 22.78° C | 39% | 1020.6 hPa | 0 mm | - | 27 W/m² | - |
| 1777743278 | 22.78° C | 38% | 1020.5 hPa | 0 mm | - | 31 W/m² | - |
| 1777743113 | 23.33° C | 38% | 1020.6 hPa | 0 mm | - | 35 W/m² | - |
| 1777742978 | 23.33° C | 38% | 1020.6 hPa | 0 mm | - | 35 W/m² | - |
| 1777742678 | 23.89° C | 36% | 1020.6 hPa | 0 mm | - | 40 W/m² | - |
| 1777742379 | 23.89° C | 36% | 1020.5 hPa | 0 mm | - | 46 W/m² | - |
| 1777741779 | 23.89° C | 36% | 1020.6 hPa | 0 mm | - | 56 W/m² | - |
| 1777741480 | 23.89° C | 36% | 1020.5 hPa | 0 mm | - | 64 W/m² | - |
| 1777741180 | 23.89° C | 36% | 1020.6 hPa | 0 mm | - | 74 W/m² | - |
| 1777740880 | 23.89° C | 35% | 1020.5 hPa | 0 mm | - | 84 W/m² | - |
| 1777740580 | 24.44° C | 36% | 1020.7 hPa | 0 mm | - | 92 W/m² | - |
| 1777740280 | 24.44° C | 35% | 1020.6 hPa | 0 mm | - | 102 W/m² | - |
| 1777740015 | 24.44° C | 35% | 1020.7 hPa | 0 mm | - | 117 W/m² | - |
| 1777739981 | 24.44° C | 35% | 1020.7 hPa | 0 mm | - | 117 W/m² | - |
| 1777739681 | 25° C | 34% | 1020.8 hPa | 0 mm | - | 135 W/m² | - |
| 1777739381 | 25° C | 34% | 1020.8 hPa | 0 mm | - | 148 W/m² | - |
| 1777739081 | 25° C | 34% | 1020.9 hPa | 0 mm | - | 156 W/m² | - |
| 1777738782 | 24.44° C | 35% | 1020.8 hPa | 0 mm | - | 174 W/m² | - |
| 1777738482 | 25° C | 35% | 1020.9 hPa | 0 mm | - | 181 W/m² | - |
| 1777738182 | 25° C | 34% | 1020.9 hPa | 0 mm | - | 195 W/m² | - |
| 1777737882 | 25° C | 34% | 1021 hPa | 0 mm | - | 219 W/m² | - |
* Rain latest hour (hover to see other rain measurements)
** Current wind speed in m/s (hover to see current wind gust speed)